Weather History for LDSP - October, 2012

Change the Weather History Date:

Thursday, October 4, 2012

  Actual Average Record
Temperature  
Mean Temperature 68 °F -  
Max Temperature 77 °F - - ()
Min Temperature 60 °F - - ()
Cooling Degree Days 4    
Growing Degree Days 18 (Base 50)    
Moisture  
Dew Point 60 °F    
Average Humidity 75    
Maximum Humidity 94    
Minimum Humidity 40    
Precipitation  
Precipitation 0.00 in - - ()
Sea Level Pressure  
Sea Level Pressure 30.05 in    
Wind  
Wind Speed 6 mph ()    
Max Wind Speed 16 mph    
Max Gust Speed -    
Visibility 9.4 miles    
Events      
T = Trace of Precipitation, MM = Missing Value Source: Averaged Metar Reports

Daily Weather History Graph

Daily Weather History Graph

Search for Another Location

Airport or City:

Trip Planner

Search our weather history database for the weather conditions in past years. The results will help you decide how hot, cold, wet, or windy it might be!

Date:

Astronomy

Oct. 04, 2012 Rise Set
Actual Time 6:56 AM CEST 6:30 PM CEST
Civil Twilight 6:27 AM CEST 6:58 PM CEST
Nautical Twilight 5:54 AM CEST 7:31 PM CEST
Astronomical Twilight 5:20 AM CEST 8:05 PM CEST
Moon 8:44 PM CEST 11:05 AM CEST
Length of Visible Light 12h 31m
Length of Day
11h 34m
Waning Gibbous, 84% of the Moon is Illuminated
Oct 4
Waning Gibbous
Oct 8
Last Quarter
Oct 15
New
Oct 22
First Quarter
Oct 29
Full

Hourly Weather History & Observations

Time (CEST) Temp. Dew Point Humidity Pressure Visibility Wind Dir Wind Speed Gust Speed Precip Events Conditions
12:00 AM 62.6 °F 59.0 °F 88% 30.09 in - WNW 8.1 mph - N/A   Clear
12:30 AM 64.4 °F 59.0 °F 83% 30.06 in - ESE 4.6 mph - N/A   Clear
1:00 AM 62.6 °F 59.0 °F 88% 30.06 in - Variable 1.2 mph - N/A   Clear
1:30 AM 62.6 °F 59.0 °F 88% 30.06 in - Variable 3.5 mph - N/A   Clear
2:00 AM 64 °F 60 °F 81% 30.09 in 12 mi WNW 8.9 mph - -  
2:00 AM 64.4 °F 59.0 °F 83% 30.06 in - WNW 10.4 mph - N/A   Clear
2:30 AM 64.4 °F 59.0 °F 83% 30.06 in - Variable 4.6 mph - N/A   Clear
3:00 AM 64.4 °F 59.0 °F 83% 30.06 in - Variable 3.5 mph - N/A   Clear
3:30 AM 62.6 °F 59.0 °F 88% 30.06 in - Variable 2.3 mph - N/A   Clear
4:00 AM 62.6 °F 59.0 °F 88% 30.06 in - Calm Calm - N/A   Clear
4:30 AM 62.6 °F 59.0 °F 88% 30.06 in - Variable 4.6 mph - N/A   Clear
5:00 AM 63 °F 60 °F 85% 30.07 in 12 mi NNW 8.9 mph - -  
5:00 AM 62.6 °F 59.0 °F 88% 30.06 in - NNW 9.2 mph - N/A   Clear
5:30 AM 62.6 °F 59.0 °F 88% 30.06 in - NW 8.1 mph - N/A   Clear
6:00 AM 62.6 °F 59.0 °F 88% 30.06 in - NW 8.1 mph - N/A   Clear
6:30 AM 60.8 °F 57.2 °F 88% 30.06 in - NW 10.4 mph - N/A   Clear
7:00 AM 60.8 °F 59.0 °F 94% 30.06 in 6.2 mi NW 9.2 mph - N/A   Partly Cloudy
7:30 AM 64.4 °F 60.8 °F 88% 30.06 in - NNW 8.1 mph - N/A   Clear
8:00 AM 64.4 °F 60.8 °F 88% 30.06 in 6.2 mi Variable 1.2 mph - N/A   Partly Cloudy
8:30 AM 66.2 °F 60.8 °F 83% 30.06 in 6.2 mi Variable 1.2 mph - N/A   Partly Cloudy
9:00 AM 66.2 °F 60.8 °F 83% 30.06 in 6.2 mi Variable 2.3 mph - N/A   Partly Cloudy
9:30 AM 68.0 °F 60.8 °F 78% 30.06 in 6.2 mi Variable 3.5 mph - N/A   Partly Cloudy
10:00 AM 69.8 °F 62.6 °F 78% 30.06 in - SE 4.6 mph - N/A   Clear
10:30 AM 71.6 °F 62.6 °F 73% 30.09 in - Variable 1.2 mph - N/A   Clear
11:00 AM 72 °F 61 °F 60% 30.09 in 19 mi SW 2.2 mph - -  
11:00 AM 71.6 °F 60.8 °F 69% 30.06 in - Variable 2.3 mph - N/A   Clear
11:30 AM 73.4 °F 62.6 °F 69% 30.06 in - Variable 3.5 mph - N/A   Clear
12:00 PM 73.4 °F 62.6 °F 69% 30.06 in - SW 5.8 mph - N/A   Clear
12:30 PM 75.2 °F 59.0 °F 57% 30.06 in 6.2 mi SSW 4.6 mph - N/A   Partly Cloudy
1:00 PM 73.4 °F 62.6 °F 69% 30.04 in 6.2 mi SSW 6.9 mph - N/A   Partly Cloudy
1:30 PM 77.0 °F 59.0 °F 54% 30.04 in 6.2 mi SW 8.1 mph - N/A   Partly Cloudy
2:00 PM 77 °F 57 °F 40% 30.04 in 19 mi SW 8.9 mph - -   Scattered Clouds
2:00 PM 77.0 °F 57.2 °F 50% 30.04 in 6.2 mi SW 10.4 mph - N/A   Partly Cloudy
2:30 PM 77.0 °F 57.2 °F 50% 30.04 in 6.2 mi Variable 5.8 mph - N/A   Partly Cloudy
3:00 PM 77.0 °F 57.2 °F 50% 30.01 in 6.2 mi SW 16.1 mph - N/A   Partly Cloudy
3:30 PM 77.0 °F 57.2 °F 50% 30.01 in 6.2 mi WSW 13.8 mph - N/A   Partly Cloudy
4:00 PM 77.0 °F 59.0 °F 54% 30.01 in - West 11.5 mph - N/A   Clear
4:30 PM 75.2 °F 59.0 °F 57% 30.01 in - WSW 12.7 mph - N/A   Clear
5:00 PM 75 °F 61 °F 53% 30.02 in 19 mi WSW 13.4 mph - -   Clear
5:00 PM 75.2 °F 60.8 °F 61% 30.01 in - WSW 13.8 mph - N/A   Clear
5:30 PM 73.4 °F 59.0 °F 61% 30.01 in - West 9.2 mph - N/A   Clear
6:00 PM 71.6 °F 60.8 °F 69% 30.01 in - West 5.8 mph - N/A   Clear
6:30 PM 69.8 °F 60.8 °F 73% 30.01 in - WNW 6.9 mph - N/A   Clear
7:00 PM 69.8 °F 60.8 °F 73% 30.04 in - NW 6.9 mph - N/A   Clear
7:30 PM 68.0 °F 60.8 °F 78% 30.04 in - NW 10.4 mph - N/A   Clear
8:00 PM 68 °F 61 °F 73% 30.04 in 12 mi WNW 13.4 mph - -  
8:00 PM 68.0 °F 60.8 °F 78% 30.04 in - WNW 12.7 mph - N/A   Clear
8:30 PM 68.0 °F 60.8 °F 78% 30.04 in - WNW 11.5 mph - N/A   Clear
9:00 PM 68.0 °F 60.8 °F 78% 30.04 in - NW 11.5 mph - N/A   Clear
9:30 PM 68.0 °F 60.8 °F 78% 30.04 in - NW 12.7 mph - N/A   Clear
10:00 PM 66.2 °F 60.8 °F 83% 30.04 in - WNW 12.7 mph - N/A   Clear
10:30 PM 66.2 °F 60.8 °F 83% 30.06 in - NW 6.9 mph - N/A   Clear
11:00 PM 65 °F 60 °F 78% 30.07 in 12 mi NW 4.5 mph - -  
11:00 PM 64.4 °F 60.8 °F 88% 30.06 in - NW 4.6 mph - N/A   Clear
11:30 PM 64.4 °F 59.0 °F 83% 30.06 in - NW 4.6 mph - N/A   Clear